Location: Colorado Springs
(38.8340°N, 104.8210°W)
Time: 09:17:26
(UTC-06:00)

Tiangong 2 - Pass Details

Date: 15 October 2017
Orbit: 388 x 391 km, 42.8° (Epoch: 23 October)

Event Time Altitude Azimuth Distance (km) Brightness Sun altitude
Exits shadow 05:08:07 27° 45° (NE) 791 3.1 -24.2°
Drops below altitude 10° 05:09:57 10° 68° (ENE) 1,421 4.9 -23.9°
Sets 05:12:07 0° 76° (ENE) 2,277 6.4 -23.5°
